This is the latest recevied weather packets stored in our database for station/object IU3OVK-13. If no packets are shown the sender has not sent any weather packets the latest 10 day(s).
| Time | Temp. | Humidity | Pressure | Rain* | Wind** | Luminosity | Snow |
|---|---|---|---|---|---|---|---|
| 1777870850 | 10.56° C | 99% | 1011.9 hPa | - | - | - | - |
| 1777870230 | 10.56° C | 99% | 1011.8 hPa | - | - | - | - |
| 1777869610 | 10.56° C | 99% | 1011.9 hPa | - | - | - | - |
| 1777843706 | 13.89° C | 99% | 1011.6 hPa | - | - | - | - |
| 1777842466 | 15° C | 99% | 1011.4 hPa | - | - | - | - |
| 1777841846 | 15.56° C | 99% | 1011.5 hPa | - | - | - | - |
| 1777841226 | 15.56° C | 99% | 1011.1 hPa | - | - | - | - |
| 1777840606 | 15.56° C | 99% | 1011.3 hPa | - | - | - | - |
| 1777839985 | 16.67° C | 99% | 1011 hPa | - | - | - | - |
| 1777839365 | 16.67° C | 99% | 1010.9 hPa | - | - | - | - |
| 1777838745 | 16.67° C | 99% | 1011.6 hPa | - | - | - | - |
| 1777838125 | 17.22° C | 99% | 1011.6 hPa | - | - | - | - |
| 1777837505 | 17.78° C | 99% | 1010.8 hPa | - | - | - | - |
| 1777836885 | 17.78° C | 99% | 1010.7 hPa | - | - | - | - |
| 1777836264 | 18.33° C | 99% | 1011 hPa | - | - | - | - |
| 1777835644 | 18.33° C | 99% | 1010.7 hPa | - | - | - | - |
| 1777835025 | 18.33° C | 99% | 1011 hPa | - | - | - | - |
| 1777834404 | 18.89° C | 99% | 1010.9 hPa | - | - | - | - |
| 1777833784 | 18.89° C | 99% | 1010.5 hPa | - | - | - | - |
| 1777831923 | 19.44° C | 99% | 1010.5 hPa | - | - | - | - |
| 1777830683 | 20° C | 99% | 1010.3 hPa | - | - | - | - |
| 1777830063 | 20.56° C | 99% | 1010.5 hPa | - | - | - | - |
| 1777829443 | 20.56° C | 99% | 1010.4 hPa | - | - | - | - |
| 1777828822 | 21.11° C | 99% | 1010.2 hPa | - | - | - | - |
| 1777828202 | 21.67° C | 93% | 1010.3 hPa | - | - | - | - |
* Rain since midnight (hover to see other rain measurements)
** Current wind speed in m/s (hover to see current wind gust speed)